Preview of NWS' New Version of Forecast
This preview is not operational and should not be used for support decisions.

Regional Weather Roundup (RWR)

Issued by National Weather Service (NWS)

                            
000
ASUS45 KABQ 221110
RWRNM 
NEW MEXICO REGIONAL WEATHER ROUNDUP
NATIONAL WEATHER SERVICE ALBUQUERQUE NM
500 AM MDT MON APR 22 2019

NOTE: "FAIR" MEANS FEW OR NO CLOUDS BELOW 12,000 FEET AGL WITH NO
       SIGNIFICANT WEATHER OR OBSTRUCTIONS TO VISION.

      THIS PRODUCT IS RELEASED AS TWO VERSIONS.  ONE VERSION NEAR
      THE TOP OF THE HOUR CONTAINING PRELIMINARY DATA FROM ALBUQUERQUE
      AND OTHER STATIONS.  A FINAL VERSION WITH ADDITIONAL DATA IS 
      ISSUED ABOUT 10 MINUTES AFTER THE HOUR.
 
NMZ501-503-504-510>518-221200-
NORTHWEST PLATEAU/NORTHCENTRAL MOUNTAINS
  
CITY           SKY/WX    TMP DP  RH WIND       PRES   REMARKS
FARMINGTON     FAIR      41  18  39 NE8       30.01R                  
LOS ALAMOS       N/A     52  15  23 CALM      30.12R                  
SANTA FE       FAIR      40  23  50 N6        30.06S                  
TAOS           CLOUDY    38  20  48 W6        30.14  WCI  33          
ANGEL FIRE       N/A     34  28  80 CALM      30.18S                  

$$
NMZ402-403-502-505>509-221200-
WESTCENTRAL MOUNTAINS/SOUTHWEST MOUNTAINS
  
CITY           SKY/WX    TMP DP  RH WIND       PRES   REMARKS
GALLUP         FAIR      35  20  54 NE5       30.07S WCI  31          
GRANTS         FAIR      34  22  61 N3        30.11S                  
SILVER CITY    FAIR      47  24  39 NW7       30.04S                  

$$
NMZ407-409-411-412-221200-
SOUTHERN DESERTS
  
CITY           SKY/WX    TMP DP  RH WIND       PRES   REMARKS
DEMING         FAIR      58  29  33 NW12      29.99F                  
LAS CRUCES     FAIR      61  27  27 W7        30.01S                  
HOLLOMAN AFB   FAIR      62  31  31 SE7       29.99S                  
ALAMOGORDO     FAIR      63  32  31 S6        29.98S                  
T OR C         FAIR      59  22  24 NW8       29.99S                  

$$
NMZ519>523-221200-
CENTRAL VALLEYS/CENTRAL HIGHLANDS
  
CITY           SKY/WX    TMP DP  RH WIND       PRES   REMARKS
ALBUQUERQUE    FAIR      52  28  39 N6        30.04R                  
DOUBLE EAGLE   FAIR      42  26  52 NW5       30.06S                  
MORIARTY ARPT  FAIR      34  29  84 N7        30.07F WCI  28          
CLINES CORNERS FAIR      48  17  29 N12       30.10S                  
BELEN          FAIR      48  28  46 W7        30.03F                  
SOCORRO        FAIR      53  25  33 N6        30.01R                  

$$
NMZ524>526-539-540-221200-
SOUTHCENTRAL MOUNTAINS
  
CITY           SKY/WX    TMP DP  RH WIND       PRES   REMARKS
RUIDOSO        FAIR      52  19  28 SW13      30.11S                  

$$
NMZ527>531-221200-
NORTHEAST HIGHLANDS/NORTHEAST PLAINS
  
CITY           SKY/WX    TMP DP  RH WIND       PRES   REMARKS
LAS VEGAS      FAIR      39  32  76 NE6       30.11R WCI  35          
RATON          MOCLDY    46  36  68 N9        30.08S                  
CLAYTON        FAIR      45  40  82 N15       30.07R                  

$$
NMZ532>537-221200-
EASTCENTRAL PLAINS
  
CITY           SKY/WX    TMP DP  RH WIND       PRES   REMARKS
SANTA ROSA     FAIR      49  38  66 N12       30.01F                  
TUCUMCARI      FAIR      47  39  74 NE7       30.02R                  
CANNON AFB     FAIR      51  40  67 NE15      30.03R                  
CLOVIS AIRPORT NOT AVBL                                               

$$
NMZ028-029-538-221200-
SOUTHEAST PLAINS
  
CITY           SKY/WX    TMP DP  RH WIND       PRES   REMARKS
ROSWELL        FAIR      55  29  36 N5        29.92R                  
ARTESIA        FAIR      64  32  29 CALM      29.91F                  
CARLSBAD       FAIR      63  47  55 SE7       29.89S                  
HOBBS          FAIR      57  54  88 SW5       29.94R                  


$$